Regional Weather Roundup
Issued by NWS San Angelo, TX

Home | Current Version | Previous Version | Text Only | Print | Product List | Glossary On
Versions: 1 2 3 4 5 6 7 8 9 10 11 12 13 14 15 16 17 18 19 20 21 22 23 24 25 26 27 28 29 30 31 32 33 34 35 36 37 38 39 40 41 42 43 44 45 46 47 48 49 50
000
ASUS44 KSJT 170110
RWRSJT
WEST CENTRAL TEXAS REGIONAL WEATHER ROUNDUP
NATIONAL WEATHER SERVICE SAN ANGELO TX
800 PM CDT TUE SEP 16 2014

NOTE: "FAIR" INDICATES FEW OR NO CLOUDS BELOW 12,000 FEET WITH NO
SIGNIFICANT WEATHER AND/OR OBSTRUCTIONS TO VISIBILITY.

TXZ049-054-064>066-071>073-076>078-098-099-113-114-127-128-139-140-
154-155-168>170-170200
...LOCATIONS ACROSS WEST CENTRAL TEXAS...

CITY           SKY/WX    TMP DP  RH WIND       PRES   REMARKS
SAN ANGELO     CLOUDY    84  67  56 E7        30.02R
ABILENE        CLOUDY    84  64  50 N6        30.03S
DYESS AFB      CLOUDY    81  65  59 NE8       30.03R
JUNCTION       MOCLDY    86  66  51 NE9       29.99F
SWEETWATER     CLOUDY    74  71  89 NW3       30.10S
BROWNWOOD      PTCLDY    84  64  51 E3        30.01S
COLEMAN        MOCLDY    85  59  41 E3        30.02S
SONORA         MOCLDY    81  66  61 SW12G20   30.06R
OZONA          MOCLDY    82  61  47 SE12      30.06R
BRADY            N/A     82  66  57 E6        30.02S
$$

TEXAS PANHANDLE/OKLAHOMA PANHANDLE

CITY           SKY/WX    TMP DP  RH WIND       PRES   REMARKS
AMARILLO       CLOUDY    73  62  68 SW9       30.11S
BORGER         CLOUDY    78  62  57 S8        30.07S
CANADIAN       MOCLDY    78  66  68 S9        30.02F
DALHART        CLOUDY    73  59  61 SW9       30.12R
DUMAS          CLOUDY    71  62  71 S9        30.10S
GUYMON         NOT AVBL
HEREFORD       CLOUDY    72  65  79 S7        30.13S
PAMPA          CLOUDY    72  61  67 S7        30.09S
PERRYTON       CLEAR     76  60  57 S12       30.04F
$$

SOUTHERN PANHANDLE/SOUTH PLAINS/ROLLING PLAINS

CITY           SKY/WX    TMP DP  RH WIND       PRES   REMARKS
LUBBOCK        LGT RAIN  69  67  93 W6        30.12F
SNYDER         RAIN      70  67  90 W7        30.10F
CHILDRESS      CLOUDY    79  63  57 S6        30.04S
SEMINOLE       CLOUDY    71  66  86 NE6       30.13F
$$

PERMIAN BASIN

CITY           SKY/WX    TMP DP  RH WIND       PRES   REMARKS
MIDLAND        CLOUDY    80  64  58 E8        30.07S
ODESSA         CLOUDY    79  64  60 E9        30.08F
WINK           MOCLDY    82  62  50 E6        30.05S
$$

FAR WEST/SOUTHWEST MOUNTAINS/TRANS PECOS

CITY           SKY/WX    TMP DP  RH WIND       PRES   REMARKS
ALPINE         CLEAR     74  59  59 E7        30.19S
DRYDEN           N/A     87  64  46 E7        30.00R
EL PASO        CLOUDY    77  63  61 NE10      30.06S
FORT STOCKTON  PTCLDY    80  60  50 SE7       30.07R
GUADALUPE PASS MOCLDY    65  61  87 NE25      30.21R
MARFA          CLEAR     72  57  60 E8        30.17R
PECOS          PTCLDY    79  62  55 E6        30.03S
$$

DALLAS/FORT WORTH METROPLEX

CITY           SKY/WX    TMP DP  RH WIND       PRES   REMARKS
DFW AIRPORT    MOCLDY    85  65  51 SE6       29.97S
FTW MEACHAM    PTCLDY    85  67  54 SE6       29.97S
DAL-EXECUTIVE  CLEAR     84  67  56 SE5       29.98R
GRAND PRAIRIE  CLEAR     84  64  51 MISG      30.00R
ADDISON        MOCLDY    86  64  48 E6        29.99R
MESQUITE       PTCLDY    84  64  51 E5        29.98S
LANCASTER      CLEAR     81  65  59 SE3       29.99S
$$

NORTH CENTRAL TEXAS

CITY           SKY/WX    TMP DP  RH WIND       PRES   REMARKS
SHRMAN/DENISON MOCLDY    82  70  67 E3        30.00S
GAINESVILLE    PTCLDY    81  69  66 CALM      30.01S
BRIDGEPORT     PTCLDY    82  66  59 CALM      30.00S
DENTON         PTCLDY    84  65  52 CALM      29.98R
WAXAHACHIE     CLEAR     83  65  55 E3        30.00S
GRANBURY       MOCLDY    87  66  50 SE6       30.00R
$$

WESTERN NORTH TEXAS

CITY           SKY/WX    TMP DP  RH WIND       PRES   REMARKS
WICHITA FALLS  MOCLDY    81  69  67 SE7       29.98S
VERNON         MOCLDY    84  65  53 S3        30.01S
BRECKENRIDGE   CLOUDY    86  63  45 CALM      30.00R
COMANCHE         N/A     83  64  52 CALM      30.02R
$$

CENTRAL AND SOUTH CENTRAL TEXAS

CITY           SKY/WX    TMP DP  RH WIND       PRES   REMARKS
AUSTIN/BERGSTM MOCLDY    78  71  79 E8        29.97R THUNDER
WACO           PTCLDY    83  71  67 E5        29.98S
HILLSBORO      PTCLDY    82  71  69 E3        29.98F
TEMPLE         CLOUDY    84  66  54 NE12      29.98S
KILLEEN-GRAY   MOCLDY    81  73  78 NE3       29.99F
FORT HOOD      CLOUDY    84  72  67 CALM      29.99F
GEORGETOWN     CLOUDY    79  72  78 SE14G21   30.01R
LAGO VISTA     MOCLDY    77  72  83 E8        30.02R
SAN MARCOS     MOCLDY    77  72  83 SE5       29.97F
NEW BRAUNFELS  PTCLDY    81  73  76 E9        29.96S
RANDOLPH AFB   PTCLDY    78  75  91 E8        29.97R
SAN ANTONIO    MOCLDY    84  72  67 E8        29.97R
STINSON        CLOUDY    85  72  65 E6        29.93S
PLEASANTON     NOT AVBL
LA GRANGE      CLOUDY    77  76  98 CALM      29.95S
GIDDINGS       CLOUDY    78  73  84 E5        30.01F
$$

EAST TEXAS

CITY           SKY/WX    TMP DP  RH WIND       PRES   REMARKS
PARIS          PTCLDY    81  66  61 SE5       30.01R
CLARKSVILLE    NOT AVBL
TYLER          PTCLDY    85  70  60 CALM      30.00R
LONGVIEW       PTCLDY    81  69  67 CALM      29.99R
PALESTINE      CLEAR     81  74  81 CALM      30.00R
NACOGDOCHES    PTCLDY    81  72  74 S9G16     30.01R
$$

TEXAS HILL COUNTRY AND EDWARDS PLATEAU

CITY           SKY/WX    TMP DP  RH WIND       PRES   REMARKS
LLANO          MOCLDY    82  72  69 SE7       30.03R
HORSESHOE BAY  CLOUDY    77  74  89 CALM      30.00R
KERRVILLE      PTCLDY    82  71  69 SE10      30.00S
FREDERICKSBRG  CLEAR     83  66  56 SE3       30.00R
ROCKSPRINGS    PTCLDY    82  64  54 CALM      30.05R
HONDO          PTCLDY    86  71  60 SE10      29.97R
UVALDE         CLOUDY    82  72  72 SE7       29.96R
DEL RIO        CLEAR     87  70  56 SW3       29.94R
$$

SOUTHEAST TEXAS

CITY           SKY/WX    TMP DP  RH WIND       PRES   REMARKS
COLLEGE STN    PTCLDY    78  74  87 CALM      29.97F
CALDWELL       CLOUDY    75  73  94 CALM      30.01F
CROCKETT       MOCLDY    79  75  89 SE9       30.04R
BRENHAM        CLOUDY    77  75  92 CALM      29.97F
HUNTSVILLE     LGT RAIN  78  73  84 CALM      30.00R
CONROE         LGT RAIN  75  74  96 CALM      29.99F
HOUSTON BUSH   LGT RAIN  77  75  93 S5        29.97F
HOUSTON HOBBY  LGT RAIN  78  76  93 CALM      29.98S
PERLAND        CLOUDY    79  76  90 CALM      30.00R
WHARTON        CLOUDY    76  75  96 CALM      29.97F
$$

THE UPPER TEXAS COAST

CITY           SKY/WX    TMP DP  RH WIND       PRES   REMARKS
ORANGE         LGT RAIN  78  78 100 MISG      30.00S
PORT ARTHUR    LGT RAIN  79  76  90 CALM      29.97F
GALVESTON      HVY RAIN  78  77  96 E8        30.00S FOG
ANGLETON       LGT RAIN  78  76  93 NE3       29.97S
BAY CITY       CLOUDY   N/A N/A N/A CALM      29.96F
$$

TEXAS COASTAL BEND, RIO GRANDE PLAINS DEEP SOUTH TEXAS

CITY           SKY/WX    TMP DP  RH WIND       PRES   REMARKS
VICTORIA       CLOUDY    81  76  84 E7        29.96R
BEEVILLE       FAIR      82  75  78 SE9       29.94R
ROCKPORT       MOCLDY    81  76  84 SE7       29.94R
PORT ARANSAS   MOCLDY    83  75  77 SE10      29.94R
PORT LAVACA    CLOUDY    80  77  90 E6        29.95S
CORPUS CHRISTI CLOUDY    82  77  84 SE3       29.94R
KINGSVILLE NAS CLOUDY    80  76  87 SE9       29.93R THUNDER
COTULLA        MOCLDY    81  77  88 E5        29.93S
LAREDO         CLOUDY    80  78  94 NE3       29.96R
BROWNSVILLE    CLEAR     81  75  82 SE8       29.94R
PORT ISABEL    CLEAR     83  74  74 SE15      29.94R
HEBBRONVILLE     N/A     80  75  84 CALM      29.94S
MCALLEN        PTCLDY    83  78  85 CALM      29.93R
WESLACO        PTCLDY    83  74  74 CALM      29.93R
FALFURRIAS     CLOUDY    75  68  77 CALM      29.92S
EDINBURG       MOCLDY    85  75  72 SW3       29.93R
$$



USA.gov is the U.S. government's official web portal to all federal, state and local government web resources and services.